Simultaneous Nadir Overpasses (SNOs) Predictions

Prediction of SNOs between NOAA-21 and PACE Satellite Orbit:

Table of predicted SNOs for the next 14.0 days since TLE Epoch: 12/21/2024
Index Date (NOAA-21) Time (NOAA-21) Lat,Lon (NOAA-21) SZA (NOAA-21 ) Date (PACE) Time (PACE) Lat,Lon (PACE) SZA (PACE ) Distance(km) Time Diff (sec)
1 12/23/2024 11:16:49 -80.12, 151.12 74.38 12/23/2024 11:17:37 -80.13, 151.00 74.38 2.41 48
2 12/23/2024 12:07:30 80.01, -40.41 105.42 12/23/2024 12:06:43 80.02, -40.38 105.44 0.64 47
3 12/25/2024 15:43:11 -80.11, 84.70 74.43 12/25/2024 15:43:44 -80.11, 84.62 74.44 1.57 33
4 12/25/2024 16:33:51 79.97,-106.54 105.31 12/25/2024 16:32:49 79.96,-106.48 105.33 1.30 62
5 12/27/2024 20:09:34 -80.13, 17.92 74.46 12/27/2024 20:09:51 -80.12, 18.00 74.48 1.78 17
6 12/30/2024 00:35:55 -80.09, -48.31 74.63 12/30/2024 00:35:56 -80.09, -48.25 74.64 1.14 1
7 01/01/2025 05:02:17 -80.09,-114.89 74.77 01/01/2025 05:02:01 -80.08,-114.74 74.78 2.99 16
8 01/03/2025 08:37:57 80.18, 10.26 105.24 01/03/2025 08:38:58 80.17, 10.31 105.20 1.02 61



Historial Predications of SNOs between NOAA-21 and PACE
